Printer-friendly version

IAU Minor Planet Center

Minor Planet Center

(7) Iris

Orbital Elements

The following orbital elements are taken from MPC 24084:
    (7) Iris
Epoch 2005 Jan. 30.0 TT = JDT 2453400.5  (M-c)          Bowell
M 189.25529              (2000.0)            P               Q
n   0.26749921     Peri.  145.42823     +0.70255386     -0.70529406
a   2.3855455      Node   259.73021     +0.62924512     +0.67787608
e   0.2310166      Incl.    5.52597     +0.33236826     +0.20747122
P   3.68           H    5.51          G   0.15
From 3313 observations at 57 oppositions, 1850-1993, mean residual 0".57.
An explanation of the orbital elements is available.

These orbital elements are also available in forms suitable for loading into a number of popular planetarium-type software programs.


Ephemeris

The following ephemeris is at intervals of five days. A daily ephemeris covering the same time interval is also available.

Personalized ephemerides for this object (and others) can be generated using the MPES.

Date    TT    R. A. (2000) Decl.     Delta      r     Elong.  Phase     V
 
2005 03 12    17 07.90   -25 06.4    2.684    2.914    93.2    19.9    11.0
2005 03 17    17 11.33   -25 08.8    2.610    2.911    97.4    19.8    10.9
2005 03 22    17 14.25   -25 10.2    2.536    2.908   101.7    19.6    10.8
2005 03 27    17 16.63   -25 10.7    2.464    2.904   106.2    19.3    10.8
2005 04 01    17 18.43   -25 10.2    2.393    2.901   110.7    18.8    10.7
2005 04 06    17 19.63   -25 08.8    2.324    2.897   115.3    18.2    10.6
2005 04 11    17 20.17   -25 06.5    2.257    2.893   120.1    17.4    10.5
2005 04 16    17 20.04   -25 03.2    2.193    2.888   125.1    16.5    10.4
2005 04 21    17 19.23   -24 58.8    2.132    2.884   130.1    15.5    10.3
2005 04 26    17 17.73   -24 53.2    2.075    2.879   135.3    14.2    10.2
2005 05 01    17 15.54   -24 46.4    2.023    2.874   140.7    12.8    10.1
2005 05 06    17 12.68   -24 38.2    1.976    2.869   146.2    11.3    10.0
2005 05 11    17 09.20   -24 28.6    1.934    2.864   151.8     9.6     9.9
2005 05 16    17 05.15   -24 17.3    1.898    2.859   157.6     7.7     9.7
2005 05 21    17 00.63   -24 04.5    1.868    2.853   163.5     5.8     9.6
2005 05 26    16 55.73   -23 50.1    1.846    2.847   169.4     3.8     9.5
2005 05 31    16 50.59   -23 34.2    1.830    2.841   175.3     1.7     9.3
2005 06 05    16 45.31   -23 17.1    1.821    2.835   178.2     0.6     9.2
2005 06 10    16 40.06   -22 59.1    1.819    2.829   172.5     2.7     9.4
2005 06 15    16 34.96   -22 40.5    1.825    2.822   166.5     4.8     9.5
2005 06 20    16 30.16   -22 21.9    1.837    2.816   160.6     6.9     9.6
2005 06 25    16 25.75   -22 03.6    1.856    2.809   154.8     8.9     9.7
2005 06 30    16 21.84   -21 46.1    1.880    2.802   149.1    10.8     9.8
2005 07 05    16 18.50   -21 29.7    1.911    2.794   143.5    12.5     9.9
2005 07 10    16 15.79   -21 15.0    1.947    2.787   138.1    14.1    10.0
2005 07 15    16 13.75   -21 02.1    1.987    2.779   132.8    15.6    10.1
2005 07 20    16 12.39   -20 51.2    2.031    2.771   127.7    16.9    10.2
2005 07 25    16 11.72   -20 42.3    2.079    2.763   122.7    18.0    10.2
2005 07 30    16 11.73   -20 35.6    2.130    2.755   117.9    19.0    10.3
2005 08 04    16 12.40   -20 31.0    2.183    2.747   113.3    19.8    10.4
2005 08 09    16 13.71   -20 28.3    2.238    2.738   108.8    20.5    10.5
2005 08 14    16 15.63   -20 27.5    2.295    2.730   104.4    21.1    10.5
2005 08 19    16 18.14   -20 28.3    2.353    2.721   100.2    21.5    10.6
2005 08 24    16 21.20   -20 30.6    2.411    2.712    96.1    21.8    10.6
2005 08 29    16 24.78   -20 34.2    2.470    2.703    92.1    21.9    10.7

Back to Bright Minor Planets

Astronomical Headlines Index

MPC


Valid HTML 4.01!